Theta_e
362 362 360 354 328 325 318 321 328 324 328 334 334 332 327 333 325 320 344 349 350 351 358 362 368 368 368 366 364 364 364 363 364 367 366 365 364 365 366 365 365 365 364 364 362 362 362 362 361
359 357 356 342 316 314 316 329 325 328 333 337 337 331 332 329 340 341 341 349 349 353 356 361 368 368 368 364 363 364 364 363 363 365 367 365 364 365 365 364 364 364 363 363 363 364 364 364 359
361 361 341 334 324 311 315 323 325 332 335 334 334 339 335 331 340 341 346 348 351 351 356 364 369 368 368 364 364 364 366 363 363 362 363 363 363 364 363 364 364 364 364 361 362 364 364 363 363
352 347 345 328 315 320 323 326 330 330 335 341 338 330 336 342 341 344 347 349 348 352 359 368 370 369 367 366 365 364 365 364 364 363 362 362 362 362 362 362 361 363 362 363 362 359 359 361 360
348 338 326 320 316 321 327 329 328 329 333 336 336 330 333 342 346 346 346 347 350 355 360 365 370 370 368 367 368 367 364 364 365 363 362 361 361 361 360 362 361 360 361 361 361 360 358 360 360
326 332 322 316 317 322 327 329 330 331 335 336 336 334 334 343 343 345 347 346 354 355 358 362 368 370 369 367 366 368 365 364 363 363 362 362 363 362 360 359 359 361 359 359 360 359 359 359 359
322 321 317 317 320 323 325 332 329 329 334 333 340 331 334 338 343 345 347 352 353 354 356 358 360 363 367 368 366 366 365 364 363 362 362 361 360 359 358 357 357 358 360 360 359 359 358 357 356
324 320 316 319 318 317 328 331 333 331 329 338 340 330 327 336 343 343 352 352 350 352 354 355 357 357 358 361 367 365 365 364 363 362 362 361 360 360 353 343 349 357 357 359 357 359 360 360 359
327 315 310 315 317 323 329 327 333 334 329 335 339 338 338 340 341 340 348 349 349 350 351 352 353 354 354 355 360 365 365 365 365 362 363 363 354 352 345 347 352 356 358 357 358 358 359 359 359
319 313 315 322 320 322 330 330 329 326 328 334 337 340 340 340 338 337 344 345 346 346 348 350 350 351 350 356 356 356 357 357 357 356 355 355 350 348 349 348 353 354 358 359 357 358 359 357 350
321 315 322 321 325 323 324 330 329 325 326 334 333 336 338 338 336 335 339 342 344 347 348 349 350 351 349 348 354 355 354 354 354 354 355 352 349 346 344 345 344 347 353 349 351 353 352 348 349
316 320 323 323 324 324 322 326 326 329 329 338 340 340 338 337 337 335 338 340 340 342 345 347 348 348 347 352 351 351 351 351 351 354 355 352 347 347 344 346 346 350 350 347 342 346 349 347 348
314 318 320 322 323 322 323 325 321 327 339 342 342 341 338 337 337 338 339 342 342 341 344 347 347 347 348 351 352 351 349 350 351 352 354 353 351 346 348 347 347 350 349 345 347 347 348 348 347
320 317 318 320 320 322 320 323 326 327 334 340 340 338 339 338 337 336 338 341 342 344 343 350 350 350 351 350 356 354 349 351 351 352 353 351 350 350 349 349 349 350 349 348 346 346 349 348 348
319 313 316 319 318 318 319 320 321 326 331 333 337 338 339 338 337 337 337 341 343 343 346 348 350 352 351 351 354 356 351 351 348 348 351 354 353 349 350 349 348 349 353 352 349 345 347 348 350
313 312 307 317 316 319 315 311 322 325 325 328 333 338 338 339 338 339 339 342 344 344 344 348 352 354 354 354 353 355 355 350 350 352 353 355 351 353 351 347 346 350 352 351 350 348 344 346 347
309 304 311 314 318 317 313 315 323 324 323 328 329 332 330 341 341 335 336 340 343 343 346 346 345 355 354 354 355 354 353 354 353 354 354 354 356 356 352 350 348 349 343 347 349 348 349 346 346
307 307 311 309 313 314 311 318 323 326 323 324 328 326 325 331 331 341 338 340 345 344 341 345 349 352 355 358 356 354 354 353 353 354 354 356 352 352 353 353 351 348 347 348 350 347 347 346 344
312 310 308 313 315 310 312 315 319 323 322 321 328 328 323 326 332 344 342 340 336 340 350 347 352 353 355 355 352 350 349 349 352 353 354 355 352 351 348 352 353 351 350 350 349 348 347 346 346
308 306 306 311 315 310 315 315 320 321 324 323 324 329 328 329 334 341 339 341 336 338 346 344 339 355 352 355 352 351 350 351 351 354 352 358 354 352 350 352 352 351 351 348 348 349 344 345 347
304 302 305 309 313 312 316 311 313 320 322 324 330 331 332 331 332 334 340 338 339 339 341 347 346 355 353 353 355 355 355 353 352 351 352 357 355 355 355 353 352 352 352 349 348 348 345 340 345
297 310 311 310 304 297 310 302 310 316 316 322 323 325 327 330 334 334 332 339 340 344 350 349 357 357 357 357 354 352 349 345 349 349 352 356 356 352 350 353 352 351 352 347 349 351 348 345 341
306 312 309 309 302 300 308 300 306 313 312 314 319 323 325 332 334 337 340 344 344 351 352 352 359 359 359 359 356 352 349 349 352 354 349 353 352 347 346 350 354 353 352 350 350 350 349 349 343
313 307 305 302 299 292 304 304 302 308 311 316 322 323 326 333 336 338 342 345 346 352 357 357 359 357 358 357 356 353 349 350 347 349 344 345 345 349 350 350 348 354 353 352 350 350 350 350 349
306 301 292 292 294 295 305 306 308 317 318 320 322 323 327 332 335 339 342 341 343 346 351 355 353 351 355 357 355 353 351 352 349 347 345 343 341 345 344 341 347 352 354 353 352 351 349 350 347
303 299 293 290 294 298 309 304 309 320 322 323 323 325 329 331 336 341 342 343 344 345 349 352 351 351 351 350 350 346 343 343 344 345 346 342 343 345 343 342 340 344 352 354 354 352 351 349 349
302 298 305 298 303 301 305 311 319 321 320 321 323 326 327 331 335 340 343 344 345 346 349 351 351 350 349 344 345 341 341 342 343 345 346 345 346 348 345 339 339 343 352 354 355 353 351 350 347
305 307 301 303 297 297 303 305 306 313 314 320 322 324 326 331 333 337 340 342 344 347 348 352 351 349 345 343 343 341 340 339 339 342 343 345 346 348 342 343 335 338 349 351 353 352 352 350 350
304 301 304 307 302 294 296 302 313 314 314 318 322 328 327 330 333 336 339 342 343 344 345 345 345 346 344 343 343 341 340 341 339 339 341 345 344 344 347 347 349 349 349 350 349 351 351 348 350
309 307 306 301 300 304 303 304 320 318 319 321 326 330 330 332 335 337 339 340 343 342 343 344 344 344 346 345 342 342 342 340 337 337 338 341 344 345 346 348 349 350 349 350 349 350 351 349 348
Wind_Speed
6 6 4 5 2 3 3 5 0 7 8 14 9 9 3 3 5 4 17 16 23 17 15 15 18 20 18 16 16 14 14 14 14 13 14 14 13 12 11 12 13 12 12 12 12 12 12 13 10
7 9 4 2 5 2 4 2 10 13 16 20 12 7 7 10 9 12 16 23 21 16 13 14 19 19 18 17 15 13 14 14 14 13 13 12 12 10 11 11 10 11 11 11 12 11 11 11 9
5 9 3 3 2 2 4 15 4 5 14 13 8 7 7 10 16 17 23 23 20 15 13 15 20 19 18 18 15 13 13 14 14 14 13 13 12 11 11 10 9 11 10 9 10 10 10 11 7
4 1 3 1 3 6 1 7 2 12 13 19 15 10 13 19 14 20 25 24 19 15 14 18 20 19 18 17 16 15 14 14 13 13 12 11 12 11 10 9 9 9 7 9 8 8 9 9 7
4 3 3 6 12 6 6 19 4 12 18 19 18 10 12 20 24 26 25 22 21 16 14 15 20 18 18 17 17 15 15 14 13 12 12 10 10 10 8 8 8 8 8 7 7 7 6 7 7
3 4 4 3 5 5 4 17 6 17 19 18 17 11 6 15 19 21 23 22 22 20 16 14 19 18 17 18 17 16 15 14 12 11 10 9 8 8 7 5 4 6 7 8 8 7 7 7 5
5 3 7 5 3 4 5 15 15 15 10 5 16 8 7 10 13 13 19 22 19 18 15 14 13 15 18 16 16 16 15 13 12 10 9 8 7 6 7 5 5 6 7 8 8 9 9 6 5
6 3 5 6 4 6 11 12 14 13 3 2 11 6 10 10 11 9 23 21 20 17 14 12 11 9 8 9 16 16 15 13 12 10 9 9 8 9 6 1 5 6 8 9 11 11 11 11 10
2 5 1 5 6 2 14 11 3 6 9 5 7 16 14 12 10 10 17 18 17 13 14 13 11 10 8 7 9 13 14 13 13 11 11 8 4 3 3 4 8 11 9 10 10 10 12 11 12
3 2 4 6 7 3 15 16 8 5 8 6 17 18 16 12 8 8 19 16 14 17 16 15 14 13 11 11 11 7 7 5 5 5 5 3 4 4 4 7 10 12 11 11 11 12 12 12 4
2 3 4 8 3 7 4 16 6 13 1 6 18 16 15 9 8 8 17 21 19 20 16 17 16 15 14 8 8 6 5 5 6 7 7 5 4 3 4 1 1 3 9 3 5 5 4 5 5
3 5 4 7 7 5 4 1 11 10 7 18 17 18 13 10 10 11 11 12 11 13 15 17 15 14 11 8 9 9 8 7 6 7 8 5 3 4 3 3 3 5 2 4 4 3 6 6 7
5 3 8 8 9 8 7 2 5 8 21 21 20 19 17 13 11 11 11 13 13 7 10 10 15 12 9 10 6 7 8 6 4 8 8 6 7 5 5 7 5 6 5 3 4 5 5 6 5
4 6 8 8 5 3 4 3 8 6 14 22 19 17 16 15 12 9 12 14 13 9 10 10 15 10 8 8 6 5 5 6 6 3 7 8 6 6 8 7 8 7 6 5 5 4 4 5 5
4 7 9 8 5 3 5 4 7 8 10 15 18 17 15 12 10 10 10 15 16 11 13 10 10 8 7 7 6 5 5 3 4 5 6 10 9 7 6 5 5 4 4 5 4 4 4 4 4
5 6 4 5 6 5 7 4 6 6 7 8 12 17 12 20 10 8 9 15 16 14 14 15 12 12 9 7 6 4 4 6 6 4 6 10 7 7 6 5 4 5 4 4 3 3 4 4 4
5 5 5 4 7 2 3 5 8 8 7 9 10 13 12 16 11 10 10 9 12 8 15 11 10 15 12 7 5 6 6 6 7 5 7 8 7 7 6 5 5 5 3 3 4 4 4 3 4
2 6 8 6 7 4 6 11 3 2 3 5 13 14 9 7 9 3 5 15 9 13 14 6 6 13 12 8 6 4 4 4 5 6 6 7 6 6 4 5 5 5 3 4 4 5 4 4 4
5 3 6 1 7 7 15 17 9 11 12 15 10 4 9 10 6 7 12 24 13 14 11 8 6 11 10 4 5 3 3 2 3 5 9 9 8 7 7 5 5 6 6 7 7 5 6 4 4
3 6 10 5 9 8 14 10 8 4 2 7 12 4 11 10 5 13 18 22 16 16 25 10 8 9 8 7 5 4 4 4 4 4 7 9 12 10 7 6 6 7 6 6 6 5 3 4 5
5 6 9 4 6 7 10 7 10 6 2 14 16 14 8 6 5 5 17 22 11 9 15 14 11 10 7 7 4 2 2 3 3 3 4 8 10 10 9 8 6 6 5 5 5 6 7 4 4
6 7 8 6 3 3 4 2 4 6 7 10 10 16 3 7 6 6 5 16 13 14 16 14 10 9 7 7 4 6 5 4 6 4 6 7 9 8 9 8 10 7 4 5 5 6 5 4 5
9 6 1 3 5 4 3 7 9 7 6 9 6 12 6 9 6 7 8 8 2 14 17 12 7 8 6 6 6 4 4 3 5 4 4 5 6 8 5 6 6 6 5 5 6 6 5 4 4
7 4 8 5 3 4 8 8 7 3 3 4 3 6 8 9 8 7 7 8 9 8 10 9 7 6 6 6 6 6 7 7 6 8 3 2 2 3 4 7 8 8 6 7 6 7 6 6 5
6 0 4 5 4 6 6 9 2 11 10 10 9 6 8 9 8 8 8 7 8 9 9 8 8 5 4 2 2 4 6 7 9 9 5 6 4 3 5 6 6 5 7 8 6 6 6 5 5
7 8 7 4 6 3 11 4 8 18 20 14 14 8 9 10 8 9 7 6 7 7 9 8 7 6 7 6 8 7 8 6 8 10 5 5 5 4 5 6 7 11 7 7 6 4 5 6 5
9 5 11 3 5 6 5 4 10 24 25 7 9 8 8 9 9 9 8 7 7 7 8 8 8 6 4 6 6 6 5 9 8 7 7 4 5 4 6 5 12 12 8 7 7 5 6 6 6
10 7 6 4 4 4 5 9 12 23 18 5 6 9 8 8 9 9 7 6 4 7 6 8 7 6 7 7 6 3 3 4 5 5 5 4 3 4 8 6 13 17 15 7 7 6 6 7 6
4 4 4 7 5 5 1 6 7 24 15 4 9 13 10 9 10 9 8 7 8 7 6 6 4 7 6 7 6 5 0 3 4 4 6 5 4 4 3 5 10 10 8 7 6 7 7 6 8
9 5 7 7 4 5 4 7 6 14 13 10 2 9 10 12 12 8 8 7 7 6 4 5 3 2 4 7 6 6 5 2 1 2 4 4 4 5 6 6 6 8 6 7 6 7 6 6 6
Wind_Direction
188 203 156 187 94 87 255 183 52 102 83 57 55 78 115 129 157 185 147 142 130 137 141 146 149 146 145 142 135 122 116 111 106 110 112 109 107 103 99 102 104 101 99 102 104 103 100 96 95
204 205 239 247 82 112 294 123 72 98 110 97 69 97 73 85 103 125 140 130 131 134 140 143 147 147 148 147 142 134 128 123 118 112 117 114 110 103 105 103 109 106 105 106 104 108 108 108 104
243 240 58 269 179 230 87 67 6 97 103 113 141 122 143 108 127 141 127 128 123 138 135 143 144 149 148 151 150 149 139 133 126 123 119 122 119 116 110 105 106 109 111 108 117 115 117 116 114
209 185 61 30 98 14 30 163 199 102 98 115 129 68 92 137 130 128 131 127 134 130 131 142 146 147 149 150 152 153 145 139 135 133 130 127 123 118 118 113 108 102 112 124 125 131 139 133 131
243 264 105 307 45 353 30 74 91 69 80 97 95 102 74 102 128 133 133 136 129 130 137 142 145 147 148 149 151 152 150 148 144 143 141 138 134 128 125 127 130 133 127 133 143 143 159 149 146
258 143 28 238 139 169 255 124 167 88 114 97 85 97 84 125 131 139 142 140 136 138 142 145 145 147 149 152 154 154 156 155 154 153 150 151 147 138 136 138 154 172 163 158 159 153 157 159 162
215 120 203 157 142 116 76 89 58 72 71 90 128 121 132 125 142 155 143 128 131 133 138 142 145 151 153 155 161 161 163 161 162 161 161 165 170 167 173 183 195 217 195 177 179 171 168 180 210
181 123 341 138 140 74 54 97 91 82 128 351 145 140 143 151 156 157 130 130 132 134 139 145 144 143 148 159 164 167 166 167 172 173 180 183 195 209 180 94 315 244 221 220 201 205 205 218 231
285 19 85 40 106 107 151 86 35 68 100 78 139 138 139 148 157 134 132 129 126 137 148 150 153 154 160 160 172 172 173 176 185 184 194 199 211 145 300 338 295 273 239 229 221 225 224 228 230
115 91 333 54 14 14 131 122 155 81 102 67 108 119 137 153 155 152 142 140 146 155 161 159 164 167 174 174 172 172 182 175 183 186 194 180 151 184 253 263 284 276 259 244 235 234 233 229 201
318 165 98 75 4 341 46 154 132 127 128 182 138 135 147 148 158 174 152 159 159 168 166 171 170 173 178 180 164 174 182 184 188 193 183 148 162 216 265 295 262 248 252 227 242 238 230 220 213
179 189 166 165 182 194 337 266 148 180 142 162 138 143 148 162 174 183 154 153 152 167 166 174 169 169 170 154 164 176 188 185 182 194 180 147 173 213 252 276 250 250 193 229 233 237 225 221 221
239 238 183 187 186 186 185 104 116 107 120 128 139 149 158 172 183 184 155 152 154 164 136 156 157 169 153 158 167 183 189 167 164 187 168 168 206 190 197 233 231 245 191 200 232 230 220 228 227
34 338 296 198 192 117 125 155 103 114 135 143 149 156 166 175 182 167 156 152 155 154 160 141 157 163 157 146 145 138 144 154 131 182 166 177 203 190 198 212 210 223 189 209 207 219 238 229 221
136 271 279 237 140 128 89 301 141 167 148 163 158 163 172 165 178 156 152 154 157 169 154 151 150 161 156 153 141 146 160 161 150 194 199 199 204 188 202 182 203 190 188 196 211 218 237 243 246
211 237 275 109 128 162 130 230 114 186 139 157 151 161 158 171 152 178 151 163 163 165 163 161 169 164 160 165 167 164 165 169 189 190 180 192 191 188 175 170 202 208 173 187 221 211 230 233 224
253 244 236 193 135 155 200 137 171 215 142 131 112 114 93 121 243 206 190 162 154 158 168 166 161 165 169 170 168 178 203 170 199 174 184 185 190 175 164 183 207 191 200 211 212 229 207 218 235
259 52 277 154 171 128 15 157 96 31 55 131 151 126 120 213 221 255 33 60 76 25 329 161 165 168 169 159 160 187 202 200 185 184 188 171 167 178 180 190 201 188 197 219 204 216 223 207 216
191 228 275 311 136 95 57 95 79 8 33 32 140 132 169 226 222 160 120 88 255 139 332 232 166 159 157 152 160 166 196 201 198 198 186 171 174 179 191 193 211 190 197 217 202 192 220 237 194
309 259 270 292 132 112 81 33 348 40 321 51 20 185 189 235 254 173 155 157 215 166 191 235 206 172 158 155 165 160 174 218 206 198 202 176 180 179 190 198 217 198 211 198 210 189 177 231 179
227 238 262 185 161 155 115 21 347 299 37 34 7 344 143 131 34 189 167 184 193 153 191 204 210 171 165 164 145 178 181 237 188 213 203 201 172 180 195 194 213 223 195 194 207 189 184 206 231
230 229 267 353 97 203 128 236 307 286 319 87 140 266 179 106 71 34 47 177 192 199 185 196 181 165 174 169 160 184 207 234 243 197 204 190 168 172 186 191 206 215 201 194 216 215 205 172 216
255 296 359 316 314 125 7 88 269 11 354 294 211 255 123 104 97 57 31 42 178 167 174 175 151 152 163 168 180 213 241 240 262 261 195 237 180 174 216 196 208 208 206 206 208 231 211 197 195
264 357 323 307 202 311 192 119 293 269 230 289 243 240 120 115 103 83 63 57 54 87 134 147 133 154 171 186 210 235 251 253 266 262 174 122 329 331 278 249 213 214 199 216 204 218 225 210 213
259 154 308 329 27 223 64 53 219 8 330 283 285 151 125 116 103 86 67 78 76 83 101 112 121 126 142 141 28 346 338 322 290 255 235 179 169 263 27 332 300 204 205 222 206 213 212 214 224
230 188 168 259 181 36 48 340 306 304 322 277 259 134 118 105 111 105 102 91 91 89 85 95 95 86 67 41 37 39 359 322 293 272 222 166 166 154 93 280 299 308 237 212 216 207 209 200 232
273 295 238 286 334 103 132 105 327 315 297 344 145 142 139 133 134 140 145 133 124 113 115 118 105 101 96 88 73 43 7 6 352 23 56 97 108 120 88 323 281 283 259 227 211 206 217 212 215
173 238 8 342 85 78 153 165 183 229 268 245 198 147 139 135 117 107 104 123 132 127 116 107 134 142 129 103 96 81 33 14 14 39 57 85 140 143 143 241 277 280 264 244 217 213 219 206 214
274 276 263 98 87 134 147 245 208 219 229 271 238 169 153 131 113 111 118 108 94 83 96 119 152 158 159 127 124 119 86 8 48 33 358 353 14 325 222 173 221 246 240 245 242 230 227 220 231
236 198 179 115 239 142 148 277 229 207 229 255 259 124 117 120 124 126 115 118 106 109 116 115 75 54 133 150 148 157 159 204 211 280 293 287 266 266 274 255 250 277 262 250 248 246 256 233 240